Location: Alladorf
(49.9620°N, 11.3790°E)
Time: 21:23:09
(UTC+00:00)

CZ-4C R/B - Pass Details

Date: 29 November 2020
Orbit: 620 x 1382 km, 63.4° (Epoch: 24 January)

Event Time Altitude Azimuth Distance (km) Brightness Sun altitude
Exits shadow 03:25:52 13° 159° (SSE) 2,022 4.3 -31.8°
Maximum altitude 03:29:13 24° 112° (ESE) 1,580 4.1 -31.3°
Drops below altitude 10° 03:33:38 10° 61° (ENE) 2,513 5.4 -30.5°
Sets 03:36:49 0° 48° (NE) 3,601 6.2 -30.0°
